Location: Gouy
(50.0008°N, 3.2556°E)
Time: 13:11:41
(UTC+00:00)

Cosmos 1242 Rocket - Pass Details

Date: 23 May 2024
Orbit: 321 x 335 km, 81.1° (Epoch: 16 June)

Event Time Altitude Azimuth Distance (km) Brightness Sun altitude
Exits shadow 02:41:46 13° 238° (WSW) 1,198 3.9 -9.1°
Maximum altitude 02:43:47 24° 290° (WNW) 811 3.5 -8.9°
Drops below altitude 10° 02:46:18 10° 348° (NNW) 1,378 5.4 -8.6°
Sets 02:48:32 0° 2° (N) 2,235 6.8 -8.4°
